Location: Unspecified
(42.7170°S, 0.0000°E)
Time: 23:31:03
(UTC+00:00)

Tiangong 2 - Visible Passes

Search period start: 26 May 2019 00:00
Search period end: 05 June 2019 00:00
Orbit: 379 x 387 km, 42.8° (Epoch: 26 May)

Date Brightness Start Highest point End Pass type
(mag) Time Alt. Az. Time Alt. Az. Time Alt. Az.
26 May 3.7 05:05:44 15° NNE 05:06:36 16° NNE 05:08:39 10° ENE visible
26 May 1.7 06:39:43 10° WNW 06:42:54 58° NNE 06:46:06 10° E visible
27 May 2.3 05:41:17 22° NW 05:42:56 39° NNE 05:45:59 10° E visible
28 May 3.9 04:44:26 18° ENE 04:44:26 18° ENE 04:45:44 10° E visible
28 May 1.2 06:16:38 13° WNW 06:19:28 77° N 06:22:43 10° E visible
29 May 1.6 05:19:39 55° NE 05:19:39 55° NE 05:22:38 10° E visible
30 May 1.0 05:54:45 33° W 05:56:04 90° ENE 05:59:18 10° E visible
31 May 3.3 04:57:35 27° E 04:57:35 27° E 04:59:13 10° E visible
31 May 1.1 06:29:46 12° W 06:32:44 88° N 06:35:58 10° E visible
01 Jun 0.9 05:32:34 84° SW 05:32:38 86° S 05:35:53 10° E visible
02 Jun 4.5 04:35:19 13° E 04:35:19 13° E 04:35:47 10° E visible
02 Jun 1.2 06:07:30 24° W 06:09:16 73° NNW 06:12:29 10° ENE visible
03 Jun 2.5 05:10:15 39° E 05:10:15 39° E 05:12:26 10° E visible
03 Jun 2.2 06:42:45 10° W 06:45:46 36° NNW 06:48:45 10° NE visible
04 Jun 1.5 05:45:11 45° WNW 05:45:45 54° NNW 05:48:55 10° ENE visible
